Location: Newark
(42.7133°N, 87.7910°W)
Time: 02:25:00
(UTC+00:00)

Vanguard 1 Rocket - Pass Details

Date: 22 September 2019
Orbit: 650 x 4226 km, 34.3° (Epoch: 13 October)

Event Time Altitude Azimuth Distance (km) Brightness Sun altitude
Rises 04:17:19 0° 277° (W) 6,511 12.1 -42.6°
Reaches altitude 10° 04:22:52 10° 270° (W) 4,856 11.3 -43.1°
Enters shadow 04:28:58 25° 250° (WSW) 3,074 10.0 -43.7°
